Location: Abbadia Lariana
(45.9000°N, 9.3333°E)
Time: 06:17:10
(UTC+00:00)

Daily predictions for brighter satellites

Satellite Brightness Start Highest point End
(mag) Time Altitude Azimuth Time Altitude Azimuth Time Altitude Azimuth
Cosmos 1727 Rocket 4.3 18:50:15 10° N 18:56:38 77° W 19:02:57 10° S
IRIDIUM 104 4.4 18:52:52 10° S 18:58:01 64° E 19:03:11 10° N
Resurs 01 Rocket 2.8 18:58:25 10° ESE 19:02:08 27° ENE 19:05:53 10° N
Cosmos 1833 Rocket 3.0 18:57:01 10° SSW 19:02:37 77° WNW 19:08:18 10° NNE
USA 238 DEB 3.8 18:59:35 10° SSW 19:05:56 53° ESE 19:12:33 10° NE
USA 238 3.8 18:59:42 10° SSW 19:06:03 52° ESE 19:12:39 10° NE
Cosmos 1697 Rocket 3.1 19:01:05 10° NNW 19:06:40 66° WSW 19:12:12 10° SSE
SPOT 3 Rocket 4.0 19:02:01 10° SE 19:06:58 46° ENE 19:11:55 10° N
IRIDIUM 114 4.3 19:01:56 10° S 19:07:08 78° E 19:12:23 10° N
Cosmos 1867 3.6 19:02:38 10° SSW 19:08:03 79° ESE 19:13:32 10° NE
MOS 1 Rocket 3.9 19:03:09 10° N 19:08:36 76° WNW 19:13:47 10° SSW
CENTAUR R/B 3.1 19:04:40 10° S 19:09:47 33° ESE 19:15:41 10° NE
Cosmos 1666 Rocket 3.7 19:05:54 10° S 19:10:06 53° E 19:14:21 10° NNE
Cosmos 1954 Rocket 4.2 19:07:36 10° S 19:12:46 54° ESE 19:17:58 10° NNE
DMSP B5D2-2 4.1 19:09:45 10° NNE 19:14:58 65° ESE 19:20:11 10° S
IRIDIUM 103 4.4 19:11:04 10° S 19:16:17 88° W 19:21:32 10° N
FREGAT/IRIS 2.9 19:14:12 10° S 19:16:47 57° W 19:19:24 10° NNW
Cosmos 1821 Rocket 4.0 19:11:23 10° S 19:17:34 87° E 19:23:53 10° N
Ariane Rocket 3.4 19:12:48 10° S 19:17:49 68° WSW 19:22:53 10° NNW
Cosmos 405 Rocket 4.1 19:15:20 10° SE 19:18:05 20° E 19:20:52 10° NE
Intercosmos 25 3.0 19:15:35 10° N 19:19:16 83° W 19:22:25 10° S
Cosmos 1805 Rocket 4.3 19:16:21 10° SSW 19:20:44 58° WNW 19:25:10 10° N
Cosmos 1812 3.6 19:17:02 10° NNW 19:20:48 52° W 19:24:30 10° S
Cosmos 407 Rocket 4.1 19:17:56 10° SSW 19:23:11 62° WNW 19:28:26 10° NNE
SJ-6B 3.4 19:21:51 10° S 19:25:49 62° W 19:29:44 10° NNW
Cosmos 1190 Rocket 4.4 19:22:06 10° SSW 19:27:22 70° WNW 19:32:43 10° NNE
NOSS 2 (A) 4.0 19:26:05 10° NW 19:28:38 82° SW 19:30:20 17° SE
deb Kosmos-1763 4.5 19:25:03 10° SSW 19:28:39 67° WNW 19:32:18 10° NNE
Cosmos 1763 Rocket 4.3 19:24:08 10° N 19:29:05 37° ENE 19:33:12 14° ESE
Cosmos 1140 Rocket 3.9 19:23:59 10° SSW 19:29:12 70° WNW 19:34:28 10° NNE
Cosmos 1437 Rocket 4.3 19:27:19 10° NNE 19:30:03 19° ENE 19:31:55 14° ESE
Resurs 1-3 3.6 19:26:31 10° SSE 19:30:53 76° ENE 19:35:16 10° N
OBJECT-B 0.8 19:30:13 10° SSE 19:33:30 90° ENE 19:36:48 10° NNW
Cosmos 2084 Rocket 3.9 19:30:53 10° S 19:34:45 38° ESE 19:38:42 10° NE
H-2A R/B 4.4 19:31:55 10° NE 19:35:27 27° E 19:38:17 14° SSE
Cosmos 1633 Rocket 3.0 19:32:31 10° S 19:36:56 85° E 19:41:23 10° N
Cosmos 1184 Rocket 2.7 19:34:33 10° S 19:37:49 71° E 19:41:06 10° NNE
Cosmos 921 Rocket 2.9 19:37:26 10° NNW 19:41:39 72° ENE 19:45:04 15° SSE
Cosmos 2123 Rocket 4.0 19:36:37 10° N 19:42:53 85° E 19:49:10 10° S
Cosmos 1535 Rocket 4.4 19:37:15 10° S 19:43:21 80° E 19:49:29 10° N
MetOp-B 4.5 19:40:53 15° SE 19:45:13 50° ENE 19:50:23 10° N
Cosmos 1605 Rocket 4.0 19:45:47 10° S 19:51:47 63° E 19:57:48 10° NNE
Okean 1 3.7 19:50:02 10° N 19:53:57 45° ENE 19:56:09 23° SE
CZ-2C R/B 3.4 19:49:28 10° N 19:54:32 55° WNW 19:59:39 10° SSW
NOSS 3-2 (A) 3.6 19:50:23 10° SW 19:56:05 78° NW 20:02:40 10° NE
USA 267 3.7 19:52:09 10° ENE 19:58:09 38° SE 20:04:08 10° SSW
Cosmos 2219 Rocket 4.3 19:55:39 10° N 19:58:40 14° NE 20:01:40 10° ENE
Cosmos 540 Rocket 4.3 19:57:14 10° N 20:02:01 36° ENE 20:04:39 22° ESE
SL-16 R/B 2.4 19:57:19 10° NNW 20:02:57 61° ENE 20:06:27 23° SE
SL-4 R/B 3.3 19:59:49 10° WNW 20:03:30 35° N 20:06:57 10° ENE
BREEZE-M DEB (TANK) 3.1 20:01:45 10° W 20:04:26 54° N 20:11:12 10° E
SL-27 R/B 2.7 20:04:28 32° SSE 20:05:24 41° ESE 20:08:32 10° NE
Cosmos 2242 Rocket 3.6 20:02:14 10° N 20:06:38 65° E 20:09:07 25° SSE
NOSS 3-2 (C) 3.3 20:01:01 10° SSW 20:06:42 82° SE 20:13:15 10° NE
Cosmos 1470 Rocket 3.6 20:02:21 10° S 20:06:46 83° W 20:11:09 10° N
Cosmos 2082 Rocket 3.6 20:06:02 10° SW 20:11:22 40° NW 20:16:42 10° NNE
BREEZE-M DEB (TANK) 2.8 20:09:34 10° WNW 20:11:58 37° N 20:12:31 29° NE
ERS-1 Rocket 3.6 20:16:14 27° ESE 20:18:20 40° ENE 20:23:01 10° N
Meteor 1-14 Rocket 4.3 20:13:21 13° S 20:18:32 65° E 20:24:27 10° NNE
Cosmos 2322 Rocket 2.3 20:14:36 10° NNW 20:20:18 68° ENE 20:23:15 29° SE
Cosmos 1850 Rocket 3.9 20:18:19 10° SSW 20:23:38 87° ESE 20:28:55 10° NNE
Cosmos 1500 3.7 20:25:36 37° E 20:25:37 37° E 20:29:07 10° NNE
SPOT 1/Viking Rocket 3.6 20:23:32 29° SSE 20:26:12 70° ENE 20:31:26 10° N
Cosmos 841 Rocket 3.6 20:22:35 10° NNW 20:27:47 60° ENE 20:29:56 34° SE
USA 32 4.5 20:22:50 10° SSW 20:27:59 62° W 20:33:12 10° N
Terra 2.8 20:27:56 27° E 20:29:14 32° ENE 20:33:26 10° N
Cosmos 2360 Rocket 2.7 20:23:58 10° NNW 20:29:26 45° ENE 20:31:48 30° ESE
USA 276 1.9 20:26:48 10° WNW 20:29:58 83° SSW 20:30:10 75° SE
Meteor 1-18 Rocket 4.2 20:24:46 10° NNW 20:30:21 80° W 20:33:52 23° S
X-37B 1.3 20:27:37 10° W 20:30:22 39° SSW 20:30:22 39° SSW
IGS 5A 3.4 20:29:39 34° S 20:31:25 83° WSW 20:35:36 10° NNW
Okean 3 4.4 20:27:40 10° N 20:31:34 33° ENE 20:32:07 31° E
ATLAS 3B R/B 2.8 20:25:32 10° S 20:31:48 48° ESE 20:38:07 10° NE
Cosmos 1238 Rocket 3.4 20:30:32 17° SW 20:32:25 39° WNW 20:35:18 10° N
USA 234 3.8 20:29:00 18° E 20:33:49 52° NNE 20:40:07 10° NW
Cosmos 1666 4.4 20:37:36 20° ENE 20:37:36 20° ENE 20:39:29 10° NE
Cosmos 1980 Rocket 4.1 20:33:28 10° NW 20:37:50 23° WSW 20:42:11 10° SSW
Resurs 01 Rocket 3.1 20:34:56 12° SSW 20:38:30 33° W 20:42:33 10° NNW
Cosmos 44 3.3 20:33:44 10° NW 20:38:42 83° SW 20:40:36 40° SSE
Iridium 4 Rocket 3.7 20:38:44 34° E 20:38:45 34° E 20:42:32 10° NNE
Lacrosse 5 2.5 20:35:12 10° WNW 20:40:01 45° SW 20:41:50 32° S
CARTOSAT-1 3.6 20:40:31 47° SE 20:41:29 62° ENE 20:45:46 10° N
Cosmos 1153 Rocket 4.5 20:36:52 14° S 20:42:18 85° W 20:48:32 10° N
GP-B 4.3 20:40:43 10° NNW 20:44:54 41° W 20:48:37 13° SSW
CZ-4B DEB 4.3 20:46:38 73° NE 20:46:38 73° NE 20:49:52 10° N
Cosmos 2061 Rocket 4.3 20:50:45 38° SE 20:52:25 47° E 20:58:19 10° NNE
Spot 2 Rocket 4.0 20:51:17 28° SSW 20:53:49 57° W 20:58:51 10° NNW
Cosmos 1814 Rocket 3.9 20:50:13 10° NNW 20:55:28 82° ENE 20:56:57 49° SSE
COSMOS 2428 4.1 20:50:51 10° N 20:55:45 28° NE 20:57:48 23° E
Cosmos 1802 Rocket 4.1 20:54:58 38° SSE 20:57:23 62° E 21:03:37 10° NNE
Cosmos 1869 Rocket 3.5 20:57:44 48° SSW 20:58:58 85° W 21:03:28 10° N
Cosmos 2237 Rocket 4.4 20:56:35 10° N 20:59:41 15° NE 21:02:46 10° ENE
CENTAUR R/B 3.2 20:54:06 10° WSW 21:00:02 56° NW 21:07:07 10° NE
Okean 1-7 3.6 20:56:22 10° NNW 21:00:32 51° W 21:01:51 36° SW
Cosmos 1437 Rocket 4.0 21:02:59 10° NNW 21:06:24 33° W 21:07:19 29° WSW
Cosmos 1570 Rocket 4.4 21:08:14 10° NNW 21:13:28 57° WSW 21:14:58 42° SSW
Cosmos 2333 Rocket 2.9 21:08:28 10° NNW 21:13:58 43° NE 21:15:19 37° E
ATLAS 5 CENTAUR R/B 2.5 21:11:12 10° NNW 21:14:02 57° NE 21:14:58 47° E
SPOT 5 2.7 21:17:39 61° SW 21:18:05 66° WSW 21:22:30 10° NNW
Cosmos 1066 Rocket 4.3 21:15:16 10° N 21:20:49 56° ENE 21:21:30 52° ESE
Meteor 1-5 Rocket 4.4 21:18:36 34° SSW 21:21:20 76° WNW 21:27:15 10° N
Cosmos 2208 Rocket 4.4 21:19:51 10° NNW 21:24:58 54° WSW 21:25:57 46° SW
Cosmos 1733 Rocket 3.4 21:29:41 54° NE 21:29:41 54° NE 21:33:21 10° NNE
ERBS 4.4 21:27:50 10° NNW 21:30:13 23° NNE 21:30:13 23° NNE
Meteor 1-11 Rocket 3.7 21:31:46 57° SSW 21:33:02 88° WNW 21:38:53 10° N
Cosmos 968 Rocket 3.9 21:37:25 46° ENE 21:37:25 46° ENE 21:41:28 10° NNE
Lacrosse 4 Rocket 1.9 21:37:37 56° NNE 21:37:37 56° NNE 21:41:01 10° NNE
Tsikada Rocket 3.9 21:31:18 10° N 21:37:39 78° E 21:38:46 61° SSE
USA 267 3.4 21:34:57 10° NE 21:41:28 74° NNW 21:47:59 10° WSW
SL-4 R/B 3.1 21:40:03 10° WNW 21:42:58 37° NNW 21:42:58 37° NNW
Cosmos 2219 Rocket 2.3 21:38:11 10° NNW 21:43:51 63° ENE 21:44:23 59° E
SL-16 R/B 3.9 21:42:18 10° NW 21:46:34 22° W 21:48:20 19° SW
Cosmos 1242 Rocket 4.0 21:48:34 10° NNW 21:50:53 36° NNW 21:50:53 36° NNW
Meteor 1-23 Rocket 4.2 21:50:55 10° NNW 21:56:46 80° W 21:57:14 74° SSW
Cosmos 1725 Rocket 4.1 21:55:18 50° SW 21:56:55 71° W 22:03:17 10° N
Cosmos 2322 3.6 21:51:33 10° NNW 21:57:13 75° WSW 21:57:25 74° SW
ERS-1 Rocket 4.4 21:56:14 26° WSW 21:57:14 27° W 22:01:30 10° NW
Spot 4 4.3 21:58:19 53° NE 21:58:19 53° NE 22:02:33 10° N
Cosmos 1536 4.1 22:03:04 39° NW 22:03:04 39° NW 22:06:11 10° N
Cosmos 836 Rocket 4.4 21:57:15 10° NNW 22:02:12 80° NW 22:02:12 80° NW
Cosmos 2322 Rocket 4.0 21:59:45 10° NW 22:03:46 20° W 22:05:03 19° WSW
Cosmos 1378 Rocket 4.2 22:01:22 10° N 22:04:52 55° N 22:04:52 55° N
Terra 3.1 22:06:49 32° W 22:06:56 32° W 22:11:12 10° NNW
Cosmos 2333 4.4 22:06:25 10° NNW 22:12:06 58° WSW 22:12:07 58° WSW
Cosmos 2360 Rocket 3.4 22:08:20 10° NW 22:13:13 31° WSW 22:13:33 30° WSW
SL-16 R/B 4.2 22:11:21 10° N 22:15:26 20° NE 22:17:41 16° ENE
USA 234 3.2 22:16:20 64° SSW 22:16:43 65° SW 22:23:15 10° NW
ATLAS 3B R/B 3.6 22:16:18 10° WSW 22:22:33 44° NW 22:28:55 10° NNE
MOS 1-B Rocket 3.8 22:17:11 10° N 22:22:46 74° WNW 22:23:10 71° WSW
Cosmos 1354 Rocket 4.3 22:23:58 60° NE 22:23:58 60° NE 22:28:22 10° NNE
Cosmos 1975 Rocket 4.3 22:24:13 10° N 22:27:17 38° NNE 22:27:17 38° NNE
Cosmos 2297 Rocket 3.6 22:32:11 27° ENE 22:32:11 27° ENE 22:35:22 10° NE
Meteor 1-21 4.4 22:27:31 10° N 22:33:00 64° ENE 22:33:00 64° ENE
Meteor 2-9 Rocket 4.5 22:35:06 60° ENE 22:35:06 60° ENE 22:40:07 10° NNE
Cosmos 2233 Rocket 4.4 22:34:08 51° WSW 22:35:09 57° WNW 22:41:23 10° N
Thor Agena Rocket 3.8 22:30:38 10° NNE 22:35:03 66° N 22:35:03 66° N
Cosmos 1980 3.9 22:31:29 10° NNW 22:36:58 62° NE 22:36:58 62° NE
Timation 2 Rocket 4.1 22:39:51 59° ENE 22:39:51 59° ENE 22:44:58 10° NNE
COSMOS 2428 3.1 22:34:46 10° NNW 22:39:48 54° W 22:39:48 54° W
Cosmos 44 Rocket 4.5 22:39:36 10° NW 22:42:56 37° WNW 22:42:56 37° WNW
Cosmos 2237 Rocket 2.4 22:39:16 10° NNW 22:44:34 65° NE 22:44:34 65° NE
Cosmos 2219 4.1 22:46:31 39° ENE 22:46:31 39° ENE 22:50:23 10° NE
Cosmos 1464 Rocket 4.0 22:46:12 71° ENE 22:46:12 71° ENE 22:52:06 10° NNE
NOSS 0 Rocket 3.9 22:45:52 10° NNW 22:51:50 76° W 22:51:50 76° W
Nadezhda 4 Rocket 4.1 22:48:45 10° N 22:54:56 62° ENE 22:54:56 62° ENE
Cosmos 2333 Rocket 3.4 22:53:00 10° NW 22:57:19 32° W 22:57:19 32° W
Cosmos 1513 Rocket 4.5 23:07:07 79° W 23:07:11 79° W 23:13:39 10° N
ALOS 2 4.2 23:17:00 31° NW 23:17:00 31° NW 23:19:31 10° NNW
Lacrosse 4 Rocket 4.3 23:14:11 10° WNW 23:16:11 13° NW 23:18:10 10° N
Cosmos 1092 Rocket 4.2 23:10:37 10° N 23:16:43 57° ENE 23:16:43 57° ENE
Cosmos 2034 Rocket 3.9 23:19:27 85° N 23:19:27 85° N 23:25:39 10° N
Cosmos 2227 Rocket 2.6 23:22:00 55° NE 23:22:00 55° NE 23:26:31 10° NNE
Cosmos 2219 Rocket 4.0 23:23:04 10° NW 23:26:05 20° W 23:26:05 20° W
Meteor 1-12 Rocket 4.4 23:28:42 77° NNE 23:28:42 77° NNE 23:34:18 10° NNE
Resurs 1-4 Rocket 4.4 23:33:15 10° ENE 23:35:32 13° E 23:35:32 13° E
Cosmos 2082 4.1 23:48:47 55° ENE 23:48:47 55° ENE 23:53:21 10° NNE
Cosmos 1607 3.9 23:41:19 10° NW 23:47:26 79° WNW 23:47:26 79° WNW
Cosmos 1375 Rocket 4.4 23:48:19 87° E 23:48:19 87° E 23:54:54 10° NE
USA 229 DEB 4.2 23:53:17 44° E 23:53:17 44° E 23:59:00 10° NE
USA 229 4.2 23:53:24 43° E 23:53:24 43° E 23:59:05 10° NE
